Theta_e
313 315 316 316 316 316 316 316 316 316 317 317 317 317 318 319 318 312 307 309 308 302 304 308 310 307 306 308 303 307 306 306 305 300 299 299 296 300 297 298 298 298 296 295 295 293 294 311 310 302 303 308 311 311
310 311 312 314 315 315 315 315 315 316 316 317 317 317 318 318 317 314 304 311 312 305 306 309 313 315 313 312 309 310 309 307 308 302 302 300 300 298 295 295 300 297 299 300 301 300 306 310 310 309 309 309 309 309
307 308 309 310 311 313 314 314 315 315 315 316 316 317 318 317 317 315 308 306 306 304 305 303 306 311 312 314 316 306 306 312 309 309 306 302 298 299 295 297 298 302 305 303 303 307 307 310 312 312 312 310 310 310
306 306 307 307 308 310 312 313 314 314 314 315 316 317 318 317 316 316 310 307 306 304 299 302 312 307 311 311 316 316 311 311 314 313 305 301 300 300 297 299 300 303 306 303 303 306 310 312 311 312 311 311 310 311
306 306 306 306 307 308 309 312 314 314 313 315 316 317 317 317 315 312 312 310 309 305 299 301 307 309 309 310 313 313 308 305 304 302 302 302 303 300 298 299 298 303 301 301 303 308 307 310 311 312 310 309 310 309
306 305 306 306 307 308 309 311 314 313 314 314 315 316 316 315 313 306 307 308 309 309 298 294 302 308 310 307 307 305 305 305 304 303 301 301 303 301 297 295 301 305 309 305 310 311 311 313 313 314 310 309 309 308
306 305 305 307 308 308 311 312 313 313 313 314 314 314 314 313 309 304 306 308 308 307 303 299 300 307 308 304 304 304 305 304 302 300 300 300 300 301 297 295 307 309 310 312 312 314 312 313 311 313 312 312 310 307
306 306 304 304 306 310 310 311 312 312 312 313 313 313 313 312 311 306 309 310 311 304 305 298 300 302 307 301 301 302 302 303 302 300 300 300 301 300 297 301 303 309 310 311 312 312 313 313 312 311 310 308 305 304
306 306 304 304 306 307 309 310 310 310 311 311 311 312 310 305 304 307 316 314 309 309 303 301 297 296 307 301 302 303 302 299 303 299 299 302 298 296 300 303 309 311 308 309 312 313 313 312 310 308 307 306 304 303
306 306 305 304 304 306 307 309 310 310 309 310 309 308 305 307 318 316 308 305 306 305 304 298 302 300 304 302 299 303 301 299 297 302 304 298 298 303 312 307 310 310 311 312 310 309 309 307 308 307 307 307 306 305
307 306 306 304 304 304 306 308 309 308 311 308 305 305 308 314 307 306 302 301 304 302 304 305 303 299 304 301 300 302 300 300 297 299 301 299 303 312 312 310 312 314 315 313 313 312 314 313 310 308 307 308 306 304
306 306 306 305 304 304 306 308 308 304 307 305 306 309 306 308 303 300 300 302 302 302 307 306 307 304 304 309 305 305 301 301 297 308 304 302 309 312 313 316 315 314 316 318 319 315 315 315 314 313 312 311 311 309
306 305 305 305 304 305 306 307 308 308 309 309 306 305 306 305 296 297 295 297 298 303 308 306 304 306 307 307 305 305 300 300 306 301 301 308 310 312 312 315 317 318 318 319 319 318 317 316 318 318 316 315 313 310
306 306 305 306 305 305 306 307 307 307 307 304 304 292 301 299 300 299 299 299 304 307 306 305 303 303 306 304 305 301 304 304 300 298 298 306 307 310 312 314 315 315 316 316 316 316 314 314 314 317 317 316 314 311
306 306 306 306 307 306 306 306 307 307 307 303 304 293 298 305 305 306 305 304 309 312 308 306 307 304 302 301 302 302 300 298 302 302 305 308 310 310 311 313 314 316 315 314 315 315 315 314 312 312 312 310 311 311
306 305 304 307 307 306 306 304 307 310 306 304 301 302 305 303 302 307 306 305 309 310 311 306 301 303 301 298 298 300 299 297 301 306 310 311 313 314 314 314 316 315 312 312 312 313 313 312 312 312 313 313 314 309
304 299 307 308 306 306 306 305 307 305 304 303 301 303 305 304 303 307 308 309 312 308 305 302 297 297 300 297 297 303 301 301 304 309 311 312 313 314 313 313 312 312 313 312 311 312 311 312 310 310 312 313 314 315
300 304 306 306 302 303 305 306 302 301 298 300 300 303 306 308 306 309 308 310 310 307 305 300 304 299 297 297 301 301 304 305 306 308 310 311 313 312 313 312 314 314 313 312 313 313 311 310 309 309 309 309 311 312
302 303 305 307 306 304 301 300 302 296 296 300 301 303 304 306 307 309 311 310 310 311 306 302 299 298 299 303 303 307 305 304 305 309 309 309 310 309 309 308 307 306 307 309 310 310 311 311 311 310 309 307 308 310
305 305 306 305 306 301 301 299 302 299 294 298 300 300 301 302 303 305 303 305 304 304 303 302 300 303 304 307 311 310 310 310 309 306 307 308 309 308 308 307 307 306 306 307 307 306 309 309 310 309 309 308 307 309
304 304 305 305 302 302 302 299 295 296 298 297 300 300 299 301 301 304 303 301 299 297 301 305 306 307 309 311 311 308 307 308 306 307 306 306 310 309 309 309 308 307 306 306 306 307 305 309 312 311 308 308 308 309
303 308 304 305 302 302 301 303 300 301 298 298 299 300 297 298 297 298 301 300 298 300 304 307 307 308 307 306 307 308 309 309 309 308 306 306 308 307 308 309 310 309 308 309 308 308 309 311 310 310 309 310 309 310
305 306 304 301 299 294 293 303 301 299 295 296 300 296 296 297 299 301 297 300 303 306 310 309 309 307 307 307 307 308 310 309 307 307 309 308 308 308 308 310 311 309 308 309 312 310 311 306 311 310 310 310 309 309
305 302 297 295 295 291 298 297 300 301 302 298 299 294 296 299 301 298 295 297 305 306 304 304 306 305 306 307 307 307 310 309 311 312 311 308 306 306 308 307 310 311 309 308 310 312 313 312 306 311 311 310 310 308
294 292 291 289 296 293 296 296 299 299 298 300 296 295 296 298 295 296 296 300 303 304 306 307 309 308 305 305 308 310 313 312 309 307 308 308 305 304 303 304 305 305 301 300 302 305 308 309 310 310 311 311 309 309
287 292 292 295 297 297 298 296 298 298 299 298 296 297 298 296 296 296 300 306 306 307 308 308 304 305 308 307 306 305 305 310 310 307 305 302 299 297 296 296 295 296 299 298 300 301 302 305 307 309 311 311 304 307
290 295 297 300 298 298 299 300 302 299 298 295 297 297 298 293 293 301 307 309 308 311 312 306 304 304 305 304 304 303 304 303 302 303 302 300 298 297 296 293 292 294 296 298 301 303 301 302 304 306 307 309 312 313
296 297 295 299 298 298 296 297 299 298 297 298 299 297 297 292 294 305 308 312 312 311 308 306 306 303 301 300 300 299 299 299 300 299 297 295 296 295 294 295 295 294 296 299 299 297 297 299 299 300 303 303 302 305
297 299 297 294 296 297 297 298 298 301 304 301 298 299 299 304 307 307 308 309 308 306 304 303 302 302 300 298 298 296 295 294 291 290 289 289 290 291 294 293 294 295 298 296 294 294 294 296 296 296 298 298 297 299
298 300 296 296 297 297 301 304 302 305 305 303 304 304 303 303 305 308 307 306 305 305 305 302 301 301 298 294 292 292 293 292 292 290 288 288 289 292 292 292 293 294 296 294 293 293 294 294 294 294 293 293 292 293
303 302 298 298 299 303 306 307 306 305 305 304 305 301 300 303 305 306 306 306 306 304 299 297 295 297 296 293 291 290 288 292 291 291 290 290 290 290 291 292 292 296 296 295 294 292 292 292 291 291 291 290 290 290
301 300 300 298 300 306 307 305 303 302 304 303 302 303 302 301 296 301 306 306 302 298 295 293 294 294 294 294 294 293 292 292 291 292 291 291 291 291 290 290 290 292 293 293 294 293 292 291 291 290 290 290 290 290
299 300 302 302 302 302 304 303 301 299 300 299 299 299 299 298 293 300 304 302 300 297 293 294 294 295 294 294 294 294 293 293 293 292 292 292 292 291 289 289 291 292 292 291 291 292 292 292 290 290 290 290 290 290
Wind_Speed
11 9 6 5 5 5 5 6 7 8 9 10 11 11 11 12 10 4 4 2 2 2 7 5 4 3 3 2 3 5 4 5 5 6 3 3 2 2 3 2 4 6 6 4 4 2 6 4 2 5 7 2 6 6
9 10 10 9 7 7 7 7 8 8 9 10 11 11 10 10 9 6 3 2 1 3 8 4 11 15 9 9 3 3 4 3 4 5 2 1 2 2 2 1 2 2 7 6 7 7 4 3 3 1 3 6 5 8
9 9 9 9 9 9 8 8 8 9 10 11 11 11 11 9 7 3 3 3 2 2 6 4 7 5 5 14 10 5 3 3 1 3 5 2 1 3 1 3 1 1 3 4 4 3 3 2 4 5 3 8 7 10
8 9 9 9 10 10 10 9 8 10 10 10 11 11 11 9 7 5 2 2 1 1 2 9 4 9 4 6 15 9 3 3 3 2 2 3 2 3 3 3 3 4 2 5 2 3 5 6 1 7 8 8 10 7
9 9 10 11 12 11 11 10 9 10 11 10 12 11 10 9 10 5 5 4 3 3 3 7 12 5 7 7 11 8 4 3 2 1 3 3 2 2 1 2 2 1 6 5 7 9 6 7 5 7 12 8 9 12
8 9 9 12 13 11 10 11 10 11 11 12 12 11 10 10 10 2 2 1 4 4 1 5 5 6 6 1 7 7 4 3 3 3 2 1 3 4 3 2 6 5 4 6 4 6 1 9 7 1 10 10 7 9
8 8 10 11 12 8 9 9 10 11 11 12 12 11 10 9 1 3 3 1 2 1 2 6 7 6 4 4 2 2 4 2 3 2 1 2 1 4 3 3 5 5 2 6 6 10 8 5 7 8 8 8 8 7
10 9 10 11 10 11 9 10 11 12 14 14 14 13 12 10 8 5 4 12 8 1 1 2 6 6 4 0 1 2 1 3 3 2 1 2 2 2 0 5 3 3 3 4 4 4 7 8 9 7 5 8 9 7
10 9 9 9 11 10 11 11 12 14 16 16 15 16 3 1 1 4 5 15 1 3 2 2 2 4 4 2 1 3 3 1 2 1 2 4 1 3 7 7 6 8 6 6 4 7 8 10 10 8 8 7 8 8
9 8 8 9 9 10 10 13 15 17 20 16 1 1 2 3 3 5 2 2 2 2 1 3 1 4 2 2 2 2 2 2 1 4 2 3 4 4 5 6 2 3 5 7 7 4 4 5 11 10 13 11 12 14
8 8 8 9 9 10 11 11 14 18 8 2 3 2 3 7 2 2 1 1 1 3 4 5 6 3 2 2 3 2 2 1 1 5 4 0 2 4 5 6 4 5 5 5 4 5 9 13 11 9 6 8 8 8
7 8 8 7 9 9 10 9 11 5 2 3 4 4 3 1 3 1 3 2 3 5 3 4 5 5 3 2 2 1 1 2 3 1 3 2 2 4 5 6 7 6 6 4 2 3 9 9 13 13 11 11 9 7
7 7 8 8 9 7 9 9 10 10 9 1 2 2 1 1 2 4 4 3 2 2 2 2 1 1 1 3 2 2 1 4 1 3 2 1 0 2 4 3 6 4 5 5 6 5 5 5 6 6 5 3 1 3
7 8 8 9 9 8 8 8 9 6 2 1 2 1 3 3 4 4 3 4 6 2 4 1 2 2 2 4 1 2 2 1 1 0 1 2 1 1 1 1 7 5 8 7 6 5 6 6 6 6 7 7 7 6
7 9 8 11 11 9 8 8 8 2 1 2 1 3 4 4 3 3 3 3 4 2 3 3 3 3 3 2 2 2 1 1 1 1 2 3 2 2 2 3 6 5 7 4 4 6 5 3 4 5 6 4 4 6
6 8 2 10 9 6 6 5 3 2 2 2 3 2 3 1 4 3 3 3 2 3 2 4 3 4 2 1 2 2 1 1 2 1 2 2 4 5 5 5 5 3 3 3 4 2 2 3 2 1 2 3 5 6
1 1 14 10 5 3 1 1 1 2 2 2 2 2 2 4 4 2 2 3 5 3 2 2 3 2 1 3 3 2 2 4 3 1 1 3 5 4 5 3 2 1 0 1 1 3 3 3 3 3 5 4 5 6
0 3 12 4 3 1 1 1 1 1 3 3 1 3 3 3 2 2 4 2 1 2 3 3 2 4 3 2 2 2 2 3 3 1 1 2 4 3 3 3 5 4 4 4 5 5 3 4 5 6 5 6 5 6
1 3 7 4 4 2 0 0 1 1 4 2 2 4 3 1 1 0 2 5 2 3 3 3 4 2 2 2 0 3 2 1 1 1 3 3 5 5 5 5 4 5 4 3 3 5 5 7 6 5 5 3 4 5
4 5 5 2 1 2 1 1 0 1 3 3 2 3 2 2 2 2 0 3 2 3 4 3 2 3 4 3 2 3 4 3 3 4 3 4 4 5 5 4 4 5 5 6 5 4 4 5 5 6 5 5 4 7
1 1 1 1 1 2 2 0 2 4 3 2 3 0 2 2 2 2 2 2 4 2 2 1 1 2 2 1 1 2 3 1 1 3 3 3 4 4 5 4 3 3 2 3 4 6 6 5 7 4 4 5 5 6
1 2 1 1 1 2 2 3 3 2 1 3 3 1 1 1 0 1 1 3 1 2 2 2 1 2 3 4 3 3 3 3 2 2 3 2 4 5 5 4 4 4 4 4 4 5 5 4 5 5 5 5 4 5
4 2 1 1 1 1 6 2 2 2 1 2 1 2 0 1 2 1 3 1 1 2 2 3 4 4 5 3 3 4 6 6 4 4 5 5 4 4 4 4 5 5 6 6 6 5 6 10 8 7 5 5 3 5
3 1 2 2 2 3 3 2 2 2 1 1 1 2 1 2 1 3 3 3 3 3 3 2 3 4 3 5 6 4 6 3 5 7 6 4 5 6 5 5 4 3 6 7 7 7 7 8 10 8 9 7 6 5
3 3 3 3 2 1 3 2 1 3 2 1 2 1 1 2 3 3 3 3 4 3 3 4 5 5 5 3 3 5 7 6 5 6 6 6 5 5 6 6 6 5 9 10 10 11 10 10 10 9 11 10 8 8
1 3 1 2 1 1 3 3 2 1 2 3 2 1 2 3 4 4 1 2 3 3 3 3 2 5 8 6 6 7 7 6 5 7 5 6 8 6 6 7 8 8 9 9 9 11 12 12 12 15 13 14 13 9
2 3 3 2 1 2 1 2 3 1 3 3 3 2 4 5 3 1 1 2 2 3 3 2 4 5 6 6 6 6 7 8 6 4 5 6 6 7 6 7 9 8 10 11 10 11 13 13 13 14 14 13 12 11
3 2 2 1 1 0 1 1 3 2 2 2 1 6 4 2 3 3 3 2 1 3 4 5 7 8 8 7 6 6 7 6 5 6 4 4 5 5 8 7 7 14 9 8 11 10 11 10 12 13 13 12 13 15
2 1 2 4 2 3 2 2 2 1 1 1 3 3 3 3 3 3 3 2 2 4 7 7 6 7 8 7 7 6 6 6 8 9 10 7 6 6 8 7 7 8 8 9 12 12 15 11 12 12 13 11 10 10
3 1 3 3 4 2 2 1 2 2 3 3 4 4 3 2 3 3 3 5 5 4 3 4 4 6 5 5 3 5 4 4 4 4 4 4 4 6 6 7 7 8 8 9 11 11 14 13 13 11 12 11 12 11
2 4 3 2 2 2 3 2 5 6 4 5 4 6 4 2 2 2 3 3 4 4 6 5 5 4 5 4 3 4 3 3 3 4 2 2 4 4 5 5 6 6 8 9 11 11 13 13 12 13 16 17 19 17
5 2 1 2 3 2 4 4 4 4 3 3 4 3 3 3 3 3 4 4 6 5 3 4 5 3 3 3 2 2 4 4 4 3 1 1 3 4 4 4 5 5 6 8 8 9 12 14 12 14 13 16 16 17
2 4 3 4 2 3 2 3 3 3 3 2 2 1 2 2 3 2 2 3 3 4 4 3 4 5 6 6 6 5 5 4 6 7 7 6 4 2 3 4 4 5 5 5 5 6 9 11 12 14 14 15 15 14
Wind_Direction
8 7 1 357 352 344 344 340 335 329 327 328 329 331 334 336 349 8 273 232 108 248 274 232 249 270 358 43 63 289 18 346 28 61 110 239 188 251 82 215 187 166 140 195 101 116 265 162 204 153 207 48 119 103
1 0 2 359 353 346 342 337 332 328 326 326 324 326 325 323 339 11 294 328 25 186 252 270 253 249 213 208 126 293 196 226 198 91 49 89 321 30 152 205 339 82 175 183 162 213 257 288 256 30 124 133 132 114
357 352 347 343 342 339 336 328 326 324 325 324 324 323 315 321 332 360 279 292 353 322 299 340 250 278 214 214 185 148 281 211 292 196 155 141 329 129 122 257 334 310 148 106 77 332 8 36 69 69 37 105 98 117
348 347 344 336 329 324 318 316 318 318 319 319 324 319 312 317 322 315 253 228 100 241 300 281 317 300 284 179 186 202 185 55 96 100 105 127 171 160 219 220 171 208 94 131 40 350 49 343 17 132 99 99 95 73
324 324 332 334 325 315 309 308 310 311 316 321 319 315 313 321 311 281 246 228 211 135 250 284 306 261 268 176 175 184 181 175 167 153 93 207 226 95 339 48 297 193 178 149 208 200 162 203 174 140 129 129 125 122
313 331 321 325 325 312 300 296 306 313 316 314 314 315 315 316 331 335 346 297 209 183 94 315 297 295 317 151 151 157 177 107 99 138 205 259 255 113 122 204 261 253 242 191 217 161 130 131 126 109 137 142 131 118
287 320 328 326 330 308 301 317 314 311 309 308 305 302 300 304 315 200 215 191 136 29 62 313 320 288 314 56 32 51 32 75 112 141 190 172 294 93 113 174 248 294 183 113 110 104 54 156 181 157 138 124 109 115
283 299 321 327 319 330 331 334 324 315 312 309 305 300 293 284 269 284 249 231 162 203 72 279 274 337 353 310 309 15 85 32 12 170 62 166 7 65 233 250 243 266 83 61 71 78 157 130 114 108 111 123 127 137
275 287 312 318 317 327 328 318 319 323 313 307 306 302 307 121 215 251 91 125 154 152 210 173 226 258 354 352 275 19 67 33 307 160 238 100 332 201 222 190 189 198 170 161 77 92 121 136 145 142 137 138 145 179
280 277 290 308 311 308 319 322 327 320 310 310 300 25 282 225 272 129 2 32 13 314 60 224 216 267 73 7 324 53 32 185 178 255 89 102 240 274 274 236 244 161 141 120 102 94 95 125 160 167 179 179 183 188
278 268 281 301 306 310 306 317 325 323 313 14 11 256 301 312 69 49 241 171 182 254 198 234 190 218 282 129 231 183 196 198 79 266 134 355 311 303 340 114 126 123 110 83 149 193 190 172 173 176 190 204 195 189
283 278 294 296 303 307 303 316 331 344 12 309 291 284 295 335 54 170 235 304 203 234 214 192 215 195 265 127 112 310 171 59 229 229 83 131 255 324 11 63 54 40 59 60 54 160 181 187 187 190 199 198 199 205
271 283 289 291 296 289 303 315 316 300 293 224 224 266 80 208 57 207 215 262 277 268 272 254 211 211 359 57 78 95 70 239 77 58 193 173 313 334 342 70 57 9 19 37 40 53 103 144 163 185 203 198 228 197
279 281 282 291 280 271 284 294 309 328 289 263 195 1 194 218 243 196 198 225 250 239 331 272 40 86 319 53 6 92 247 65 26 323 262 263 233 291 99 46 94 62 50 51 40 51 92 119 137 153 170 172 174 193
275 280 293 286 261 255 273 295 311 293 267 266 132 212 224 261 252 256 236 315 288 334 40 341 71 70 4 83 9 70 42 320 29 150 213 213 207 154 109 122 88 80 81 50 28 41 26 12 343 331 335 318 211 192
291 304 284 302 276 236 260 297 257 230 246 250 229 280 294 276 334 346 341 298 306 332 36 33 38 44 300 34 37 19 48 61 276 235 185 190 144 78 35 30 43 79 125 130 80 74 24 27 37 298 285 251 251 260
19 309 340 326 144 178 201 271 276 234 273 303 280 258 287 270 245 268 296 300 358 70 96 171 105 175 19 38 45 355 85 266 277 289 251 217 145 166 189 211 246 305 243 213 263 270 264 264 271 287 291 287 276 261
2 331 350 97 87 336 290 255 308 31 251 254 304 282 250 236 168 14 316 282 167 83 141 224 140 59 61 56 353 323 306 289 302 46 35 358 0 15 16 326 314 311 304 275 258 260 246 262 271 262 268 274 290 286
177 331 345 12 9 291 300 283 156 256 251 290 278 278 269 283 86 241 6 300 249 106 80 38 71 89 156 172 308 313 317 155 190 358 328 21 33 22 6 341 331 327 305 281 279 266 257 243 238 251 246 242 248 259
278 286 291 350 359 314 232 307 170 222 272 251 277 278 243 245 261 258 32 360 51 92 51 43 161 184 158 193 142 239 276 317 28 15 327 326 322 333 311 290 282 282 294 303 302 273 292 292 256 238 233 229 234 261
14 292 113 171 299 225 270 214 229 214 267 278 271 185 289 10 11 20 45 10 54 81 114 195 119 126 207 45 69 215 254 217 203 198 238 296 310 315 307 316 310 328 324 310 304 305 295 262 275 270 241 257 241 255
305 334 312 263 289 314 278 241 227 252 215 254 315 148 121 99 97 297 50 52 68 240 195 137 92 62 51 40 344 349 300 291 284 316 332 281 325 330 338 340 348 345 351 336 335 316 305 318 324 305 273 254 236 253
298 245 272 153 286 50 263 319 256 210 210 270 32 111 262 130 226 32 57 315 287 346 25 69 67 58 85 34 23 17 16 17 23 18 6 5 11 11 16 26 31 28 11 354 338 325 326 343 337 319 293 297 302 295
291 231 214 213 189 276 311 243 245 269 221 38 178 108 130 169 15 64 86 33 311 343 16 71 114 87 46 33 33 1 353 9 67 48 26 27 18 11 23 20 2 4 20 334 335 338 335 329 319 319 319 295 292 280
15 327 101 300 237 285 260 269 251 24 67 207 233 37 234 72 81 61 74 358 340 15 11 14 33 44 87 88 27 12 359 46 50 60 22 27 29 19 10 9 8 18 17 351 342 338 336 332 325 317 314 309 292 296
82 242 153 281 287 225 314 334 76 124 330 304 215 142 63 78 58 59 85 323 353 12 15 20 66 79 60 44 55 35 6 1 48 67 42 43 40 22 2 355 348 346 359 340 332 331 330 331 329 327 324 320 302 298
305 222 233 245 200 264 309 34 68 278 279 343 355 6 69 60 34 353 126 341 44 17 335 5 63 75 73 56 40 31 27 28 32 41 66 50 52 28 12 3 348 332 326 327 334 344 348 338 336 337 331 328 323 315
262 179 235 297 230 205 87 96 166 324 357 286 69 31 72 113 248 349 20 358 304 23 57 60 73 84 79 68 52 37 31 6 359 12 33 34 22 32 7 353 339 327 329 340 2 355 346 343 344 335 342 351 349 346
276 285 72 8 50 70 13 347 347 322 314 36 85 79 99 16 360 9 344 0 39 57 71 94 88 89 78 66 53 37 24 16 27 39 38 18 358 348 352 347 347 347 349 5 353 358 349 350 2 3 356 360 352 348
311 12 59 30 29 25 287 243 293 38 29 82 93 96 73 63 16 350 16 24 35 47 54 71 84 103 93 86 71 33 12 19 32 52 45 11 325 314 332 344 349 360 8 9 10 4 12 20 18 16 16 14 11 9
348 22 73 70 184 28 46 69 72 71 58 61 46 93 90 99 10 29 30 2 33 66 82 70 54 90 118 118 107 90 39 337 3 34 47 316 317 320 324 330 321 351 20 24 26 23 23 23 22 25 26 29 27 25
134 229 251 96 85 88 38 32 39 49 44 40 41 32 52 54 57 11 349 17 52 61 62 113 115 132 153 161 175 188 180 180 206 211 195 341 344 337 333 335 336 347 2 7 13 27 30 28 24 25 14 15 18 22
70 142 165 94 113 155 171 109 97 93 69 102 125 106 51 91 81 302 335 45 94 142 153 146 156 162 178 182 194 202 210 217 230 224 222 228 239 297 352 339 339 340 341 350 355 8 14 25 27 25 21 18 13 17